Weather in Karakulino

Russia / Udmurt Republic     56°00′42″N   53°42′16″E
temp.,
°C
wind,
m/s
gust,
m/s
humid.,
%
clouds,
%
prec.,
mm/h
press.,
hPa
HPBL,
m
9 december, thu
thu901:00−3s41192100 0.0 1030367
04:00−4sse4993100 0.0 1030254
07:00−6se4995100 0.0 1030185
10:00−5se41093100 0.0 1029251
13:00−4sse41089100 0.0 1028303
16:00−4se41190100 0.0 1027293
19:00−4sse41192100 0.0 1026382
22:00−4sse3891100 0.0 1026230
10 december, fri
fri1001:00−4s3789100 0.0 1025225
04:00−4s2495100 0.4 1025163
07:00−4sw1297100 1.4 102595
10:00−8nw229891 1.6 102715
13:00−7nnw379512 0.0 1028179
16:00−10n410935 0.0 1030192
19:00−13n411905 0.0 1032203
22:00−14n411905 0.0 1034250
11 december, sat
sat1101:00−14nne412895 0.0 1035258
04:00−15nne412915 0.0 1037237
07:00−16nne412915 0.0 1038226
10:00−16nne311895 0.0 1039217
13:00−12nne310895 0.0 1040224
16:00−14n23955 0.0 104039
19:00−14n36925 0.0 104281
22:00−16nnw22945 0.0 104223
12 december, sun
sun1201:00−16n22935 0.0 104324
04:00−17n21955 0.0 104411
07:00−18nnw11955 0.0 104412
10:00−17nnw11945 0.0 104618
13:00−13n11899 0.0 104522
16:00−15nw119233 0.0 10459
19:00−17wnw009316 0.0 10459
22:00−17wsw01945 0.0 10449
13 december, mon
mon1301:00−17ssw11945 0.0 10449
04:00−18ssw11975 0.0 104410
07:00−17sw119621 0.0 104210
10:00−16wsw119362 0.0 104211
13:00−12wsw128943 0.0 104149
16:00−15wsw119382 0.0 10419
19:00−17wsw119519 0.0 104010
22:00−17sw1196100 0.0 104010